KG5MMT-12 Weather Reports


time (UTC)temp
C
wind
direction
speed
KPH
gust
KPH
rain 1hr
cm
rain 24hr
cm
rain mn
cm
humidity
%
barometer
mb
20260510204343 16 125 4.8 11.3 0.00 0.00 0.00 50
20260510204337 15 220 3.2 6.4 0.00 0.00 0.00 52
20260510203837 15 246 1.6 12.9 0.00 0.00 0.00 51
20260510203337 16 125 4.8 11.3 0.00 0.00 0.00 50
20260510202837 15 229 8.0 16.1 0.00 0.00 0.00 51
20260510202337 15 357 0.0 4.8 0.00 0.00 0.00 52
20260510201837 15 208 0.0 8.0 0.00 0.00 0.00 53
20260510201337 15 194 1.6 1.6 0.00 0.00 0.00 53
20260510200837 15 165 0.0 8.0 0.00 0.00 0.00 53
20260510200337 15 170 1.6 9.7 0.00 0.00 0.00 53
20260510195837 15 196 9.7 11.3 0.00 0.00 0.00 52
20260510195337 15 157 1.6 8.0 0.00 0.00 0.00 51
20260510194837 15 156 4.8 11.3 0.00 0.00 0.00 52
20260510194337 15 127 3.2 12.9 0.00 0.00 0.00 52
20260510193837 15 198 0.0 11.3 0.00 0.00 0.00 52
20260510193337 15 181 0.0 9.7 0.00 0.00 0.00 52
20260510192837 15 258 6.4 9.7 0.00 0.00 0.00 53
20260510192337 15 178 0.0 6.4 0.00 0.00 0.00 52
20260510191837 15 151 4.8 9.7 0.00 0.00 0.00 52
20260510191337 16 80 0.0 9.7 0.00 0.00 0.00 51
20260510190837 16 125 1.6 4.8 0.00 0.00 0.00 51
20260510190337 16 98 1.6 6.4 0.00 0.00 0.00 51
20260510185837 15 66 0.0 12.9 0.00 0.00 0.00 51
20260510185337 15 85 0.0 4.8 0.00 0.00 0.00 53
20260510184838 15 281 0.0 14.5 0.00 0.00 0.00 52
20260510184337 15 189 9.7 12.9 0.00 0.00 0.00 53
20260510183837 15 178 11.3 14.5 0.00 0.00 0.00 53
20260510183337 14 157 0.0 3.2 0.00 0.00 0.00 56
20260510182837 14 81 0.0 4.8 0.00 0.00 0.00 57
20260510182337 14 160 0.0 4.8 0.00 0.00 0.00 57
20260510181837 14 144 0.0 6.4 0.00 0.00 0.00 57
20260510181337 15 322 0.0 4.8 0.00 0.00 0.00 54
20260510180837 15 285 1.6 6.4 0.00 0.00 0.00 53
20260510180337 15 151 3.2 9.7 0.00 0.00 0.00 52
20260510175837 15 87 1.6 6.4 0.00 0.00 0.00 51
20260510175337 15 210 6.4 14.5 0.00 0.00 0.00 52
20260510174837 15 329 0.0 20.9 0.00 0.00 0.00 52
20260510174337 15 182 17.7 17.7 0.00 0.00 0.00 51
20260510173837 16 66 0.0 8.0 0.00 0.00 0.00 50
20260510173337 15 132 4.8 14.5 0.00 0.00 0.00 52
20260510172837 15 151 14.5 14.5 0.00 0.00 0.00 54
20260510172337 15 60 0.0 6.4 0.00 0.00 0.00 54
20260510171837 15 237 4.8 9.7 0.00 0.00 0.00 53
20260510171337 15 161 8.0 16.1 0.00 0.00 0.00 51
20260510170837 15 237 4.8 12.9 0.00 0.00 0.00 50
20260510170337 16 157 4.8 9.7 0.00 0.00 0.00 46
20260510165837 16 5 0.0 9.7 0.00 0.00 0.00 46
20260510165337 16 278 0.0 6.4 0.00 0.00 0.00 49
20260510164837 15 164 1.6 8.0 0.00 0.00 0.00 50
20260510164337 15 284 3.2 16.1 0.00 0.00 0.00 54
20260510163837 14 225 1.6 20.9 0.00 0.00 0.00 53
20260510163338 14 171 8.0 11.3 0.00 0.00 0.00 53
20260510162837 14 239 4.8 8.0 0.00 0.00 0.00 53
20260510162337 14 240 0.0 6.4 0.00 0.00 0.00 54
20260510161837 13 199 4.8 8.0 0.00 0.00 0.00 55
20260510161337 13 172 0.0 11.3 0.00 0.00 0.00 55
20260510160837 13 295 0.0 9.7 0.00 0.00 0.00 55
20260510160337 13 279 4.8 6.4 0.00 0.00 0.00 57
20260510155837 12 177 3.2 9.7 0.00 0.00 0.00 57
20260510155337 12 151 1.6 12.9 0.00 0.00 0.00 58
20260510154837 12 225 4.8 9.7 0.00 0.00 0.00 58
20260510154337 12 255 3.2 16.1 0.00 0.00 0.00 58
20260510153837 12 137 6.4 11.3 0.00 0.00 0.00 59
20260510153337 12 177 1.6 12.9 0.00 0.00 0.00 60
20260510152837 12 172 4.8 12.9 0.00 0.00 0.00 61
20260510152337 12 161 8.0 11.3 0.00 0.00 0.00 61
20260510151837 12 151 0.0 8.0 0.00 0.00 0.00 62
20260510151337 11 180 3.2 11.3 0.00 0.00 0.00 63
20260510150837 11 157 8.0 12.9 0.00 0.00 0.00 65
20260510150337 11 181 8.0 12.9 0.00 0.00 0.00 66
20260510145837 11 222 4.8 14.5 0.00 0.00 0.00 67
20260510145339 11 189 6.4 11.3 0.00 0.00 0.00 67
20260510144837 10 175 8.0 16.1 0.00 0.00 0.00 67
20260510144337 10 319 0.0 12.9 0.00 0.00 0.00 67
20260510143837 10 135 3.2 11.3 0.00 0.00 0.00 67
20260510143337 10 226 4.8 11.3 0.00 0.00 0.00 67
20260510142837 10 220 3.2 12.9 0.00 0.00 0.00 67
20260510142337 10 168 6.4 12.9 0.00 0.00 0.00 65
20260510141837 11 237 3.2 12.9 0.00 0.00 0.00 65
20260510141337 11 185 9.7 12.9 0.00 0.00 0.00 62
20260510140837 11 156 0.0 0.0 0.00 0.00 0.00 59
20260510140337 11 156 0.0 0.0 0.00 0.00 0.00 59
20260510135837 11 156 0.0 0.0 0.00 0.00 0.00 59
20260510135337 11 156 0.0 0.0 0.00 0.00 0.00 60
20260510134837 11 156 0.0 0.0 0.00 0.00 0.00 59
20260510134337 11 156 0.0 0.0 0.00 0.00 0.00 60
20260510133837 11 156 0.0 0.0 0.00 0.00 0.00 61
20260510133337 11 156 0.0 0.0 0.00 0.00 0.00 61
20260510132837 11 156 0.0 0.0 0.00 0.00 0.00 61
20260510132338 11 156 0.0 0.0 0.00 0.00 0.00 60
20260510131837 11 156 0.0 0.0 0.00 0.00 0.00 61
20260510131337 10 156 0.0 0.0 0.00 0.00 0.00 63
20260510130837 10 156 0.0 0.0 0.00 0.00 0.00 64
20260510130337 10 156 0.0 0.0 0.00 0.00 0.00 64
20260510125837 10 156 0.0 0.0 0.00 0.00 0.00 64
20260510125337 10 156 0.0 0.0 0.00 0.00 0.00 67
20260510124837 10 156 0.0 0.0 0.00 0.00 0.00 65
20260510124337 10 156 0.0 0.0 0.00 0.00 0.00 66
20260510123838 10 156 0.0 0.0 0.00 0.00 0.00 66
20260510123338 10 156 0.0 0.0 0.00 0.00 0.00 65
20260510122838 10 156 0.0 0.0 0.00 0.00 0.00 64
20260510122338 10 156 0.0 0.0 0.00 0.00 0.00 64
20260510121838 10 156 0.0 0.0 0.00 0.00 0.00 65
20260510121338 10 156 0.0 0.0 0.00 0.00 0.00 65
20260510120838 10 156 0.0 0.0 0.00 0.00 0.00 64
20260510120338 10 156 0.0 0.0 0.00 0.00 0.00 64
20260510115838 10 156 0.0 0.0 0.00 0.00 0.00 63
20260510115338 11 156 0.0 0.0 0.00 0.00 0.00 63
20260510114838 11 156 0.0 0.0 0.00 0.00 0.00 62
20260510114338 11 156 0.0 0.0 0.00 0.00 0.00 62
20260510113838 11 156 0.0 0.0 0.00 0.00 0.00 60
20260510113339 11 156 0.0 0.0 0.00 0.00 0.00 60
20260510112838 11 156 0.0 0.0 0.00 0.00 0.00 60
20260510112338 11 156 0.0 0.0 0.00 0.00 0.00 59
20260510111838 11 156 0.0 0.0 0.00 0.00 0.00 59
20260510111338 11 156 0.0 0.0 0.00 0.00 0.00 58
20260510110839 11 156 0.0 0.0 0.00 0.00 0.00 58
20260510110338 11 156 0.0 0.0 0.00 0.00 0.00 58
20260510105838 11 156 0.0 6.4 0.00 0.00 0.00 57
20260510105338 12 202 3.2 6.4 0.00 0.00 0.00 57
20260510104838 12 157 1.6 11.3 0.00 0.00 0.00 55
20260510104338 12 202 0.0 4.8 0.00 0.00 0.00 52
20260510103838 12 229 0.0 4.8 0.00 0.00 0.00 51
20260510103338 12 216 4.8 12.9 0.00 0.00 0.00 51
20260510102838 12 216 11.3 16.1 0.00 0.00 0.00 51
20260510102338 11 243 0.0 0.0 0.00 0.00 0.00 52
20260510101838 11 243 0.0 0.0 0.00 0.00 0.00 52
20260510101338 11 243 0.0 0.0 0.00 0.00 0.00 53
20260510100838 11 243 0.0 0.0 0.00 0.00 0.00 53
20260510100338 11 243 0.0 0.0 0.00 0.00 0.00 53
20260510095838 11 243 0.0 0.0 0.00 0.00 0.00 52
20260510095338 11 243 0.0 0.0 0.00 0.00 0.00 51
20260510094838 11 243 0.0 0.0 0.00 0.00 0.00 51
20260510094338 11 243 0.0 0.0 0.00 0.00 0.00 53
20260510093838 11 243 0.0 0.0 0.00 0.00 0.00 52
20260510093338 11 243 0.0 0.0 0.00 0.00 0.00 51
20260510092838 11 243 0.0 0.0 0.00 0.00 0.00 52
20260510092338 11 243 0.0 0.0 0.00 0.00 0.00 52
20260510091838 11 243 0.0 0.0 0.00 0.00 0.00 51
20260510091338 10 243 0.0 0.0 0.00 0.00 0.00 51
20260510090838 10 243 0.0 0.0 0.00 0.00 0.00 52
20260510090338 10 243 0.0 0.0 0.00 0.00 0.00 54
20260510085838 10 243 0.0 0.0 0.00 0.00 0.00 54
20260510085338 10 243 0.0 0.0 0.00 0.00 0.00 53
20260510084838 10 243 0.0 0.0 0.00 0.00 0.00 54
20260510084338 10 243 0.0 0.0 0.00 0.00 0.00 54
20260510083838 10 243 0.0 0.0 0.00 0.00 0.00 53
20260510083338 10 243 0.0 0.0 0.00 0.00 0.00 53
20260510082838 10 243 0.0 0.0 0.00 0.00 0.00 53
20260510082338 10 243 0.0 0.0 0.00 0.00 0.00 53
20260510081838 10 243 0.0 0.0 0.00 0.00 0.00 53
20260510081338 10 243 0.0 0.0 0.00 0.00 0.00 52
20260510080838 10 243 0.0 0.0 0.00 0.00 0.00 52
20260510080338 10 243 0.0 0.0 0.00 0.00 0.00 51
20260510075838 10 243 0.0 0.0 0.00 0.00 0.00 52
20260510075338 10 243 0.0 0.0 0.00 0.00 0.00 50
20260510074838 10 243 0.0 0.0 0.00 0.00 0.00 51
20260510074338 10 243 0.0 0.0 0.00 0.00 0.00 51
20260510073838 10 243 0.0 0.0 0.00 0.00 0.00 51
20260510073338 10 243 0.0 0.0 0.00 0.00 0.00 51
20260510072838 10 243 0.0 0.0 0.00 0.00 0.00 51
20260510072338 10 243 0.0 0.0 0.00 0.00 0.00 50
20260510071838 10 243 0.0 0.0 0.00 0.00 0.00 51
20260510071338 10 243 0.0 0.0 0.00 0.00 0.00 49
20260510070838 10 243 0.0 0.0 0.00 0.00 0.00 50
20260510070338 10 243 0.0 0.0 0.00 0.00 0.00 49
20260510065838 10 243 0.0 0.0 0.00 0.00 0.00 51
20260510065338 10 243 0.0 0.0 0.00 0.00 0.00 50
20260510064838 10 243 0.0 0.0 0.00 0.00 0.00 51
20260510064338 10 243 0.0 0.0 0.00 0.00 0.00 49
20260510063838 10 243 0.0 0.0 0.00 0.00 0.00 49
20260510063338 10 243 0.0 0.0 0.00 0.00 0.00 49
20260510062838 10 243 0.0 0.0 0.00 0.00 0.00 48
20260510062338 10 243 0.0 0.0 0.00 0.00 0.00 48
20260510061838 10 243 0.0 0.0 0.00 0.00 0.00 47
20260510061338 10 243 0.0 0.0 0.00 0.00 0.00 47
20260510060838 10 243 0.0 0.0 0.00 0.00 0.00 48
20260510060338 10 243 0.0 0.0 0.00 0.00 0.00 47
20260510055838 10 243 0.0 0.0 0.00 0.00 0.00 49
20260510055338 10 243 0.0 0.0 0.00 0.00 0.00 48
20260510054838 10 243 0.0 0.0 0.00 0.00 0.00 49
20260510054338 10 243 0.0 0.0 0.00 0.00 0.00 47
20260510053838 11 243 0.0 0.0 0.00 0.00 0.00 47
20260510053338 11 243 0.0 0.0 0.00 0.00 0.00 47
20260510052838 11 243 0.0 0.0 0.00 0.00 0.00 48
20260510052338 11 243 0.0 0.0 0.00 0.00 0.00 46
20260510051838 11 243 0.0 0.0 0.00 0.00 0.00 45
20260510051338 11 243 0.0 0.0 0.00 0.00 0.00 44
20260510050838 11 243 0.0 0.0 0.00 0.00 0.00 45
20260510050338 11 243 0.0 0.0 0.00 0.00 0.00 44
20260510045838 11 243 0.0 0.0 0.00 0.00 0.00 43
20260510045338 11 243 0.0 0.0 0.00 0.00 0.00 43
20260510044838 11 243 0.0 0.0 0.00 0.00 0.00 43
20260510044338 12 243 0.0 0.0 0.00 0.00 0.00 44
20260510043838 12 243 0.0 0.0 0.00 0.00 0.00 42
20260510043338 12 243 0.0 0.0 0.00 0.00 0.00 43
20260510042838 12 243 0.0 0.0 0.00 0.00 0.00 42
20260510042338 12 243 0.0 0.0 0.00 0.00 0.00 41
20260510041838 12 243 0.0 0.0 0.00 0.00 0.00 42
20260510041338 12 243 0.0 0.0 0.00 0.00 0.00 41
20260510040838 12 243 0.0 0.0 0.00 0.00 0.00 40
20260510040338 12 243 0.0 0.0 0.00 0.00 0.00 41
20260510035838 12 243 0.0 0.0 0.00 0.00 0.00 39
20260510035338 12 243 0.0 0.0 0.00 0.00 0.00 39
20260510034838 12 243 0.0 0.0 0.00 0.00 0.00 42
20260510034338 12 243 0.0 0.0 0.00 0.00 0.00 39
20260510033838 12 243 0.0 0.0 0.00 0.00 0.00 40
20260510033338 12 243 0.0 0.0 0.00 0.00 0.00 40
20260510032838 12 243 0.0 0.0 0.00 0.00 0.00 39
20260510032338 12 243 0.0 0.0 0.00 0.00 0.00 41
20260510031838 12 243 0.0 0.0 0.00 0.00 0.00 42
20260510031338 12 243 0.0 0.0 0.00 0.00 0.00 41
20260510030839 12 243 0.0 0.0 0.00 0.00 0.00 41
20260510030339 12 243 0.0 0.0 0.00 0.00 0.00 40
20260510025839 12 243 0.0 0.0 0.00 0.00 0.00 39
20260510025339 13 243 0.0 4.8 0.00 0.00 0.00 39
20260510024839 13 313 4.8 6.4 0.00 0.00 0.00 38
20260510024339 13 315 0.0 0.0 0.00 0.00 0.00 38
20260510023839 13 315 0.0 0.0 0.00 0.00 0.00 36
20260510023339 13 315 0.0 0.0 0.00 0.00 0.00 36
20260510022839 14 315 0.0 0.0 0.00 0.00 0.00 35
20260510022339 14 315 0.0 0.0 0.00 0.00 0.00 35
20260510021839 15 315 0.0 0.0 0.00 0.00 0.00 33
20260510021339 15 315 0.0 0.0 0.00 0.00 0.00 33
20260510020839 15 315 0.0 0.0 0.00 0.00 0.00 33
20260510020339 15 315 0.0 0.0 0.00 0.00 0.00 32
20260510015839 15 315 0.0 0.0 0.00 0.00 0.00 32
20260510015339 16 315 0.0 0.0 0.00 0.00 0.00 34
20260510014839 16 315 0.0 0.0 0.00 0.00 0.00 31
20260510014339 17 315 0.0 1.6 0.00 0.00 0.00 31
20260510013839 17 323 0.0 0.0 0.00 0.00 0.00 29
20260510013339 18 323 0.0 3.2 0.00 0.00 0.00 25
20260510012839 18 302 0.0 0.0 0.00 0.00 0.00 22
20260510012339 19 302 0.0 0.0 0.00 0.00 0.00 22
20260510011839 20 302 0.0 0.0 0.00 0.00 0.00 21
20260510011339 20 302 0.0 1.6 0.00 0.00 0.00 20
20260510010839 20 326 0.0 1.6 0.00 0.00 0.00 17
20260510010339 20 309 0.0 8.0 0.00 0.00 0.00 14
20260510005839 21 338 0.0 4.8 0.00 0.00 0.00 16
20260510005339 20 348 3.2 8.0 0.00 0.00 0.00 15
20260510004839 20 8 0.0 6.4 0.00 0.00 0.00 17
20260510004339 20 213 0.0 0.0 0.00 0.00 0.00 20
20260510003839 21 213 0.0 0.0 0.00 0.00 0.00 21
20260510003339 21 213 0.0 0.0 0.00 0.00 0.00 17
20260510002839 21 213 0.0 0.0 0.00 0.00 0.00 18
20260510002339 22 213 0.0 0.0 0.00 0.00 0.00 16
20260510001839 22 213 0.0 0.0 0.00 0.00 0.00 15
20260510001339 22 213 0.0 1.6 0.00 0.00 0.00 13
20260510000839 21 303 0.0 11.3 0.00 0.00 0.00 14
20260510000341 22 82 9.7 9.7 0.00 0.00 0.00 15
20260509235839 22 262 0.0 0.0 0.00 0.00 0.00 15
20260509235339 22 262 0.0 0.0 0.00 0.00 0.00 14
20260509234839 22 262 0.0 4.8 0.00 0.00 0.00 13
20260509234339 22 172 1.6 11.3 0.00 0.00 0.00 14
20260509233839 22 143 6.4 11.3 0.00 0.00 0.00 13
20260509233339 22 309 1.6 9.7 0.00 0.00 0.00 13
20260509232839 22 91 1.6 12.9 0.00 0.00 0.00 12
20260509232339 22 260 8.0 12.9 0.00 0.00 0.00 12
20260509231839 22 275 0.0 6.4 0.00 0.00 0.00 13
20260509231339 23 227 0.0 1.6 0.00 0.00 0.00 13
20260509230839 23 233 0.0 8.0 0.00 0.00 0.00 13
20260509230339 22 201 6.4 11.3 0.00 0.00 0.00 13
20260509225839 22 36 8.0 12.9 0.00 0.00 0.00 14
20260509225339 22 192 0.0 8.0 0.00 0.00 0.00 14
20260509224839 22 226 4.8 9.7 0.00 0.00 0.00 13
20260509224339 23 15 0.0 14.5 0.00 0.00 0.00 12
20260509223839 23 282 6.4 12.9 0.00 0.00 0.00 12
20260509223339 23 122 1.6 25.7 0.00 0.00 0.00 11
20260509222839 25 330 3.2 8.0 0.00 0.00 0.00 12
20260509222339 25 295 0.0 12.9 0.00 0.00 0.00 12
20260509221839 24 8 1.6 6.4 0.00 0.00 0.00 11
20260509221339 23 274 6.4 14.5 0.00 0.00 0.00 12
20260509220839 24 334 0.0 4.8 0.00 0.00 0.00 12
20260509220339 24 213 0.0 9.7 0.00 0.00 0.00 11
20260509215839 25 4 0.0 12.9 0.00 0.00 0.00 11
20260509215339 25 278 4.8 19.3 0.00 0.00 0.00 11
20260509214839 25 298 4.8 14.5 0.00 0.00 0.00 12
20260509214339 24 300 3.2 14.5 0.00 0.00 0.00 11
20260509213839 24 234 12.9 14.5 0.00 0.00 0.00 11
20260509213339 24 253 9.7 22.5 0.00 0.00 0.00 12
20260509212839 24 248 3.2 11.3 0.00 0.00 0.00 11
20260509212339 25 336 8.0 12.9 0.00 0.00 0.00 11
20260509211839 25 293 9.7 16.1 0.00 0.00 0.00 11
20260509211339 25 240 3.2 12.9 0.00 0.00 0.00 11
20260509210839 25 298 0.0 16.1 0.00 0.00 0.00 11
20260509210339 25 217 1.6 6.4 0.00 0.00 0.00 11
20260509205839 25 170 0.0 9.7 0.00 0.00 0.00 12
20260509205627 24 271 4.8 11.3 0.00 0.00 0.00 11
20260509205339 24 271 4.8 11.3 0.00 0.00 0.00 11
20260509204839 23 316 9.7 19.3 0.00 0.00 0.00 11